Poughkeepsie, NY

11:47 PM EST on November 19, 2017 (GMT -0500)
Dutchess County

Weather History for KPOU - October, 2013

Change the Weather History Date:

Tuesday, October 29, 2013

  Actual Average Record
Temperature  
Mean Temperature 41 °F 47 °F  
Max Temperature 51 °F 59 °F 74 °F (1971)
Min Temperature 31 °F 35 °F 19 °F (1985)
Degree Days  
Heating Degree Days 24 18  
Month to date heating degree days 308 400  
Since 1 July heating degree days 451 540  
Cooling Degree Days 0 0  
Month to date cooling degree days 8 0  
Year to date cooling degree days 829 668  
Moisture  
Dew Point 26 °F    
Average Humidity 57    
Maximum Humidity 85    
Minimum Humidity 39    
Precipitation  
Precipitation 0.00 in 0.14 in 1.89 in (2017)
Month to date precipitation 1.37 4.21  
Year to date precipitation 33.91 39.27  
Sea Level Pressure  
Sea Level Pressure 30.39 in    
Wind  
Wind Speed 4 mph (North)    
Max Wind Speed 7 mph    
Max Gust Speed -    
Visibility 10 miles    
Events      
T = Trace of Precipitation, MM = Missing Value Source: NWS Daily Summary

Daily Weather History Graph

Daily Weather History Graph

Search for Another Location

Airport or City:

Trip Planner

Search our weather history database for the weather conditions in past years. The results will help you decide how hot, cold, wet, or windy it might be!

Date:

Astronomy

Oct. 29, 2013 Rise Set
Actual Time 7:24 AM EDT 5:53 PM EDT
Civil Twilight 6:55 AM EDT 6:22 PM EDT
Nautical Twilight 6:22 AM EDT 6:54 PM EDT
Astronomical Twilight 5:50 AM EDT 7:27 PM EDT
Moon 2:07 AM EDT (10/29) 3:09 PM EDT (10/29)
Length of Visible Light 11h 26m
Length of Day
10h 29m
Waning Crescent, 25% of the Moon is Illuminated
Oct 29
Waning Crescent
Nov 3
New
Nov 10
First Quarter
Nov 17
Full
Nov 25
Last Quarter

Hourly Weather History & Observations

Time (EDT) Temp. Windchill Dew Point Humidity Pressure Visibility Wind Dir Wind Speed Gust Speed Precip Events Conditions
12:53 AM 42.1 °F 39.2 °F 27.0 °F 55% 30.35 in 10.0 mi NNE 4.6 mph - N/A   Overcast
1:53 AM 42.1 °F 40.2 °F 27.0 °F 55% 30.35 in 10.0 mi North 3.5 mph - N/A   Overcast
2:53 AM 41.0 °F 36.4 °F 28.0 °F 60% 30.36 in 10.0 mi North 6.9 mph - N/A   Overcast
3:53 AM 39.9 °F 36.7 °F 27.0 °F 60% 30.37 in 10.0 mi North 4.6 mph - N/A   Overcast
4:53 AM 39.9 °F 36.7 °F 25.0 °F 55% 30.38 in 10.0 mi North 4.6 mph - N/A   Overcast
5:53 AM 39.0 °F 36.8 °F 25.0 °F 57% 30.40 in 10.0 mi North 3.5 mph - N/A   Overcast
6:53 AM 39.0 °F 35.7 °F 24.1 °F 55% 30.41 in 10.0 mi North 4.6 mph - N/A   Overcast
7:53 AM 37.0 °F 34.5 °F 23.0 °F 57% 30.42 in 10.0 mi North 3.5 mph - N/A   Scattered Clouds
8:53 AM 39.0 °F 35.7 °F 24.1 °F 55% 30.44 in 10.0 mi North 4.6 mph - N/A   Mostly Cloudy
9:53 AM 39.9 °F 35.8 °F 25.0 °F 55% 30.44 in 10.0 mi NNE 5.8 mph - N/A   Overcast
10:53 AM 43.0 °F 41.3 °F 25.0 °F 49% 30.43 in 10.0 mi NNW 3.5 mph - N/A   Mostly Cloudy
11:53 AM 46.0 °F 44.8 °F 25.0 °F 44% 30.42 in 10.0 mi Variable 3.5 mph - N/A   Mostly Cloudy
12:53 PM 48.0 °F - 26.1 °F 42% 30.41 in 10.0 mi West 3.5 mph - N/A   Overcast
1:53 PM 48.0 °F - 25.0 °F 41% 30.38 in 10.0 mi Variable 3.5 mph - N/A   Overcast
2:53 PM 50.0 °F - 26.1 °F 39% 30.37 in 10.0 mi Calm Calm - N/A   Partly Cloudy
3:53 PM 50.0 °F - 26.1 °F 39% 30.36 in 10.0 mi Variable 4.6 mph - N/A   Partly Cloudy
4:53 PM 50.0 °F - 26.1 °F 39% 30.36 in 10.0 mi SE 3.5 mph - N/A   Clear
5:53 PM 46.9 °F - 28.0 °F 48% 30.37 in 10.0 mi Calm Calm - N/A   Clear
6:53 PM 39.0 °F - 28.9 °F 67% 30.38 in 10.0 mi Calm Calm - N/A   Clear
7:53 PM 37.0 °F - 28.9 °F 73% 30.38 in 10.0 mi Calm Calm - N/A   Clear
8:53 PM 35.1 °F - 28.9 °F 78% 30.37 in 10.0 mi Calm Calm - N/A   Clear
9:53 PM 34.0 °F - 28.0 °F 79% 30.38 in 10.0 mi Calm Calm - N/A   Clear
10:53 PM 33.1 °F - 28.9 °F 85% 30.38 in 10.0 mi Calm Calm - N/A   Clear
11:53 PM 30.9 °F - 27.0 °F 85% 30.35 in 10.0 mi Calm Calm - N/A   Clear